Regional Weather Roundup
Issued by NWS

Home | Current Version | Previous Version | Graphics & Text | Print | Product List | Glossary On
Versions: 1 2 3 4 5 6 7 8 9 10 11 12 13 14 15 16 17 18 19 20 21 22 23 24 25 26 27 28 29 30 31 32 33 34 35 36 37 38 39 40 41 42 43 44 45 46 47 48 49 50
000
ASUS43 KBIS 241402
RWRND

NORTH DAKOTA REGIONAL WEATHER ROUNDUP
NATIONAL WEATHER SERVICE BISMARCK ND
900 AM CDT TUE MAY 24 2016

NOTE: "FAIR" INDICATES FEW OR NO CLOUDS BELOW 12,000 FEET WITH NO
SIGNIFICANT WEATHER AND/OR OBSTRUCTIONS TO VISIBILITY.


NDZ001>003-009>011-017-241500-
NORTHWEST NORTH DAKOTA

CITY           SKY/WX    TMP DP  RH WIND       PRES   REMARKS
WILLISTON      MOSUNNY   55  43  63 SW8       29.87R
MINOT          SUNNY     62  44  51 W5        29.85R
$$

NDZ018>021-031>035-040>046-241500-
SOUTHWEST NORTH DAKOTA

CITY           SKY/WX    TMP DP  RH WIND       PRES   REMARKS
BISMARCK       SUNNY     59  45  59 SW5       29.87R
DICKINSON      SUNNY     55  42  61 NW9       29.88R
GARRISON         N/A     60  45  57 NW8       29.87R
HETTINGER ARPT SUNNY     58  43  57 NW10      29.91R
$$

NDZ004>008-012>016-024-026-027-054-241500-
NORTHEAST NORTH DAKOTA

CITY           SKY/WX    TMP DP  RH WIND       PRES   REMARKS
GRAND FORKS    MOSUNNY   66  54  65 CALM      29.79S
DEVILS LAKE    SUNNY     65  47  52 SW6       29.85R
$$

NDZ022-023-025-028>030-036>039-047>053-241500-
SOUTHEAST NORTH DAKOTA

CITY           SKY/WX    TMP DP  RH WIND       PRES   REMARKS
FARGO          PTSUNNY   68  50  52 SE14      29.80S
JAMESTOWN      SUNNY     64  51  62 S5        29.83R
$$




USA.gov is the U.S. government's official web portal to all federal, state and local government web resources and services.